[Date Prev][Date Next][Thread Prev][Thread Next] - [Date Index][Thread Index][Author Index]

2 Line ISS Keps 1-19



ISS
1 25544U 98067A   09019.66443287  .00011179  00000-0  93909-4 0  1040
2 25544 051.6435 347.2209 0007790 283.3836 079.8947 15.70448043582598
----
Sent via sarex@amsat.org. Opinions expressed are those of the author.
Not an AMSAT member? Join now to support the amateur satellite program!
Subscription settings: http://amsat.org/mailman/listinfo/sarex



AMSAT Top AMSAT Home